Change the Weather History Date:

Monday, October 10, 2011

  Actual Average Record
Temperature  
Mean Temperature 54 °F -  
Max Temperature 65 °F 51 °F 68 °F (1997)
Min Temperature 40 °F 33 °F 28 °F (1999)
Degree Days  
Heating Degree Days 11    
Growing Degree Days 4 (Base 50)    
Moisture  
Dew Point 41 °F    
Average Humidity 59    
Maximum Humidity 87    
Minimum Humidity 26    
Precipitation  
Precipitation 0.01 in - - ()
Sea Level Pressure  
Sea Level Pressure 30.09 in    
Wind  
Wind Speed 4 mph (WNW)    
Max Wind Speed 10 mph    
Max Gust Speed 22 mph    
Averages and records for this station are not official NWS values.
T = Trace of Precipitation, MM = Missing Value Source: NWS Daily Summary

Daily Weather History Graph

Daily Weather History Graph

Search for Another Location

Airport or City:

Trip Planner

Search our weather history database for the weather conditions in past years. The results will help you decide how hot, cold, wet, or windy it might be!

Date:

Astronomy

Oct. 10, 2011 Rise Set
Actual Time 6:48 AM EDT 6:01 PM EDT
Civil Twilight 6:18 AM EDT 6:31 PM EDT
Nautical Twilight 5:43 AM EDT 7:06 PM EDT
Astronomical Twilight 5:07 AM EDT 7:41 PM EDT
Moon 5:03 PM EDT (10/10) 5:24 AM EDT (10/10)
Length of Visible Light 12h 13m
Length of Day
11h 12m
Waxing Gibbous, 98% of the Moon is Illuminated
Oct 10
Waxing Gibbous
Oct 11
Full
Oct 19
Last Quarter
Oct 26
New
Nov 2
First Quarter

Hourly Weather History & Observations

Time (EDT) Temp. Dew Point Humidity Pressure Visibility Wind Dir Wind Speed Gust Speed Precip Events Conditions
12:25 AM 64.2 °F 53.4 °F 68% 30.03 in - Variable 5.8 mph 15.0 mph N/A   Unknown
1:25 AM 63.3 °F 53.2 °F 70% 30.03 in - Variable 5.8 mph 12.7 mph N/A   Unknown
2:25 AM 62.2 °F 53.2 °F 72% 30.03 in - Variable 4.6 mph - N/A   Unknown
3:25 AM 61.7 °F 53.4 °F 74% 30.02 in - Variable 4.6 mph - 0.00 in   Unknown
4:25 AM 58.8 °F 53.2 °F 82% 30.03 in - Variable 2.3 mph - N/A   Unknown
5:25 AM 57.2 °F 53.4 °F 87% 30.06 in - Calm Calm - N/A   Unknown
6:25 AM 58.1 °F 54.1 °F 87% 30.07 in - Calm Calm - N/A   Unknown
7:25 AM 58.3 °F 51.8 °F 79% 30.09 in - Variable 3.5 mph - N/A   Unknown
8:25 AM 57.9 °F 45.7 °F 64% 30.12 in - Variable 5.8 mph 18.4 mph N/A   Unknown
9:25 AM 58.8 °F 41.2 °F 52% 30.12 in - Variable 5.8 mph 12.7 mph N/A   Unknown
10:25 AM 61.5 °F 28.9 °F 29% 30.12 in - Variable 4.6 mph 18.4 mph N/A   Unknown
11:25 AM 61.2 °F 26.8 °F 27% 30.11 in - NW 9.2 mph 20.7 mph N/A   Unknown
12:25 PM 61.7 °F 27.9 °F 28% 30.10 in - WNW 8.1 mph 20.7 mph N/A   Unknown
1:27 PM 64.2 °F 31.6 °F 30% 30.08 in - Variable 4.6 mph 21.9 mph N/A   Unknown
2:25 PM 65.5 °F 34.9 °F 32% 30.07 in - Variable 4.6 mph 16.1 mph N/A   Unknown
3:25 PM 64.0 °F 28.2 °F 26% 30.07 in - WNW 10.4 mph 18.4 mph N/A   Unknown
4:25 PM 63.5 °F 29.5 °F 28% 30.08 in - Variable 3.5 mph 12.7 mph N/A   Unknown
5:25 PM 60.6 °F 31.8 °F 34% 30.09 in - Calm Calm - N/A   Unknown
6:25 PM 50.5 °F 41.0 °F 70% 30.10 in - Calm Calm - N/A   Unknown
7:25 PM 52.0 °F 36.9 °F 56% 30.13 in - Calm Calm - 0.00 in   Unknown
8:25 PM 47.1 °F 38.1 °F 71% 30.14 in - Calm Calm - 0.00 in   Unknown
9:25 PM 43.5 °F 36.3 °F 76% 30.16 in - Calm Calm - N/A   Unknown
10:25 PM 43.2 °F 37.4 °F 80% 30.17 in - Calm Calm - N/A   Unknown
11:25 PM 40.5 °F 36.5 °F 86% 30.19 in - Calm Calm - 0.00 in   Unknown